Regional Weather Roundup
Issued by NWS Upton, NY

Current Version | Previous Version | Text Only | Print | Product List | Glossary On
Versions: 1 2 3 4 5 6 7 8 9 10 11 12 13 14 15 16 17 18 19 20 21 22 23 24 25 26 27 28 29 30 31 32 33 34 35 36 37 38 39 40 41 42 43 44 45 46 47 48 49 50
000
ASUS41 KOKX 191305
RWROKX

REGIONAL WEATHER ROUNDUP
NATIONAL WEATHER SERVICE NEW YORK NY
900 AM EDT TUE AUG 19 2014

NOTE: "FAIR" INDICATES FEW OR NO CLOUDS BELOW 12,000 FEET WITH NO
SIGNIFICANT WEATHER AND/OR OBSTRUCTIONS TO VISIBILITY.

NYZ071-072-176-178-NJZ106-104-191400-
NEW YORK CITY METRO AREA


CITY           SKY/WX    TMP DP  RH WIND       PRES   REMARKS
CENTRAL PARK   SUNNY     69  56  62 VRB3      29.93S
LAGUARDIA APRT MOSUNNY   70  58  65 NE13      29.90S
KENNEDY INTL   MOSUNNY   72  57  59 NE9       29.91R
NEWARK/LIBERTY MOSUNNY   71  57  61 N9        29.90S
BRNX BOT. GARD   N/A     68  55  64 E9        29.92F
TETERBORO      SUNNY     70  55  59 E6        29.90S
$$

NYZ177-179-078>081-191400-
LONG ISLAND NEW YORK

CITY           SKY/WX    TMP DP  RH WIND       PRES   REMARKS
FARMINGDALE    SUNNY     69  59  70 E6        29.91R
ISLIP          MOSUNNY   69  57  65 E7        29.90R
SHIRLEY        SUNNY     70  58  65 CALM      29.92R
WESTHAMPTON    SUNNY     70  55  59 E5        29.93R
MONTAUK POINT    N/A     68  55  63 NE7       29.93S
$$

NYZ052-065-067-191400-
HUDSON VALLEY

CITY           SKY/WX    TMP DP  RH WIND       PRES   REMARKS
WHITE PLAINS   SUNNY     67  51  56 E6        29.91S
NEWBURGH       SUNNY     63  57  82 CALM      29.94S
MONTGOMERY     SUNNY     63  54  72 NE5       29.94R
POUGHKEEPSIE   SUNNY     63  55  75 CALM      29.92S
ALBANY         PTSUNNY   60  53  77 CALM      29.95R
$$

NJZ001-105-106-008-010-013-015-019>022-104-191400-
NEW JERSEY

CITY           SKY/WX    TMP DP  RH WIND       PRES   REMARKS
NEWARK/LIBERTY MOSUNNY   71  57  61 N9        29.90S
TETERBORO      SUNNY     70  55  59 E6        29.90S
CALDWELL       SUNNY     68  54  60 NE7       29.92R
MORRISTOWN     SUNNY     66  57  72 NE5       29.92S
SOMERVILLE     SUNNY     70  55  59 NE3       29.88S
LINDEN         PTSUNNY   75  61  60 E9        29.91F
SUSSEX         SUNNY     67  55  65 NE6       29.93S
ANDOVER          N/A     63  55  75 VRB5      29.92S
TRENTON        SUNNY     70  58  65 NE8       29.88S
MILLVILLE      SUNNY     74  66  76 E7        29.87S
ATLANTIC CITY  SUNNY     75  67  76 E9        29.87F
WRIGHTSTOWN    CLOUDY    68  66  95 E5        29.87R
TOMS RIVER     SUNNY     72  66  83 CALM      29.88F
BELMAR         MOSUNNY   72  63  73 E7        29.89S
$$

PAZ047>061-062-071-191400-
EASTERN PENNSYLVANIA

CITY           SKY/WX    TMP DP  RH WIND       PRES   REMARKS
PHILADELPHIA   MOSUNNY   72  60  66 NE10      29.88R
ALLENTOWN      SUNNY     67  54  63 NE9       29.90S
SCRANTON       SUNNY     65  53  65 NE6       29.91S
$$

CTZ002-004>006-009-010-012-RIZ004-006-007-MAZ004-011-015-191400-
SOUTHERN NEW ENGLAND
 IN CT

CITY           SKY/WX    TMP DP  RH WIND       PRES   REMARKS
BRADLEY INTL   MOSUNNY   62  52  69 N5        29.93S
HARTFORD       SUNNY     62  53  72 N5        29.93F
DANBURY        SUNNY     63  53  70 NE5       29.94S
WTRBRY/OXFORD  MOSUNNY   63  50  63 E6        29.95S
BRIDGEPORT     SUNNY     69  53  56 NE7       29.92S
MERIDEN        SUNNY     65  52  62 N5        29.93S
NEW HAVEN      SUNNY     66  54  65 N7        29.92S
CHESTER        FAIR      64  52  63 E5        29.94S
GROTON         SUNNY     66  55  67 N6        29.92S
WILLIMANTIC    SUNNY     61  52  72 CALM      29.94S

 IN RI

CITY           SKY/WX    TMP DP  RH WIND       PRES   REMARKS
PROVIDENCE     MOSUNNY   67  50  54 N6        29.94R
BLOCK ISLAND   SUNNY     66  55  68 NE9       29.93S
WESTERLY       SUNNY     67  52  58 NE6       29.93S

 IN MA

CITY           SKY/WX    TMP DP  RH WIND       PRES   REMARKS
BOSTON         MOSUNNY   66  50  56 N3        29.92S
WORCESTER      SUNNY     63  49  60 NW6       29.94S
WESTFIELD      SUNNY     60  52  74 NE3       29.93F
PROVINCETOWN   SUNNY     66  57  72 MISG      29.92S
NANTUCKET      SUNNY     70  56  61 N6        29.92R
$$

ANZ330-335-338-340-345-350-353-355-191400-
COASTAL MARINE OBSERVATIONS


STATION/POSITION TIME  SKY/WX   TEMP    WIND        PRES    VSBY  WAVE
                                AIR SEA DIR/SP/G                  HT/PER
                 (UTC)          (F)     (DEG/KT/KT) (MB)    (MI)  (FT/S)
NY HARB ENTRANCE NOT AVBL
4S FIRE IS       NOT AVBL
23SW MTP         1300            69 68              1012.4          2/ 8
HUDSON CANYON    1300            73 73  130/ 10/ 12 1012.1          2/ 9
EXECUTION ROCKS  1300            68 72   60/ 12/ 16   N/A
WESTERN LI SOUND 1300            66      60/ 10/ 12   N/A           1/ 3
CENTRAL LI SOUND 1200            66 71   50/ 10/ 12   N/A           1
EASTERN LI SOUND 1200            68 68   30/  8/ 10   N/A
ROBBINS REEF     1300            69      80/  9/ 10   N/A
$$


>>>>>>>>>>>>>>>>>>>>>>>>>>>> KEY <<<<<<<<<<<<<<<<<<<<<<<<<<<
>                                                          <
>     SKY/WX - SKY CONDITION/PRESENT WEATHER               <
>     TMP    - TEMPERATURE IN FAHRENHEIT                   <
>     DP     - DEWPOINT IN FAHRENHEIT                      <
>     RH     - RELATIVE HUMIDITY IN PERCENT                <
>     WIND   - DIRECTION AND SPEED IN MPH                  <
>     PRES   - MEAN SEA LEVEL PRESSURE IN INCHES OF HG     <
>     WCI    - WIND CHILL INDEX                            <
>     VSB    - VISIBILITY IN MILES                         <
>     HX     - HEAT INDEX                                  <
>     TC     - TEMPERATURE IN CELSIUS                      <
>     VRB    - VARIABLE WIND DIRECTION                     <
>                                                          <
>>>>>>>>>>>>>>>>>>>>>>>>>>>> KEY <<<<<<<<<<<<<<<<<<<<<<<<<<<




USA.gov is the U.S. government's official web portal to all federal, state and local government web resources and services.